FENGYUN 1C DEB, 29736

Orbit data source: Space-Track

FENGYUN 1C DEB, 29736 is space debris in SSO originally from a launch on Mon, 10 May 1999 UTC launched from the Taiyaun Space Center, China (TSC). Fengyun 1C debris stems from the Chinese weather satellite Fengyun-1C, which was intentionally destroyed by a Chinese anti-satellite missile in 2007. This event dramatically increased the amount of space debris, with thousands of trackable fragments posing hazards to satellites and human spaceflight. The Fengyun 1C debris cloud has become a focal point in discussions about space sustainability and the need for international regulations to prevent the creation of new debris.

Loading next visibility...
Identifier
29736, 1999-025AA
Orbit
SSO
Country
Flag of CNCN / PRC
Related business
Manufacturer
Unknown
Mission
Spacecraft
Bus & Motor
Unknown
Mass
Unknown
Launch date (UTC)
1999-05-10 (27 years ago)
Launch vehicle
Unknown
Launch site
Taiyaun Space Center, China (TSC)
Object type
Payload
Rocket body
Debris
Shape & HBR
Unknown shape, 1.1 m
Radar Cross Section
Medium (>0.1 m² and <1 m²)

Expand to show TLE details & history
Last TLE update: 15 hours ago

TLE from 15 hours ago
0 FENGYUN 1C DEB
1 29736U 99025AA  26238.34299225  .00000152  00000-0  40407-3 0  9995
2 29736  99.4364  13.9889 0723873   8.0280  41.0571 12.57761033897704
Epoch: 2026-08-26T08:13Z
TLE epoch observation values (Epoch: 2026-08-26T08:13:54.530Z)
Latitude
53.93024°
Longitude
-97.2051°
Altitude
1,033.725 km
Speed
7.529 km/s
True Right ascension
00h 03m 28s
True Declination
53° 46' 21"
Sunlit
Object was in daylight at epoch
Visualization orbit readout
Latitude
Unknown
Longitude
Unknown
Altitude
Unknown
Speed
Unknown
Apparent Right ascension
Unknown
Apparent Declination
Unknown
Sunlit
N/A
Visualization observer readout
Local Sidereal Time
14:42:09
Azimuth
Unknown
Elevation
Unknown
Doppler factor
Unknown
Orbital elements
Apogee altitude
1,994.773 km
Perigee altitude
864.412 km
Semi-major axis
7,807.729 km
Eccentricity
0.07239
Inclination
99.4364°
RAAN
13.9889°
Arg. of periapsis
8.028°
True anomaly
46.89282°
Mean anomaly
41.0571°
Eccentric anomaly
43.93479°
Mean motion
3.14598 °/min
Orbital period
114.43 mins
BSTAR
0.00040407
Loading maneuver chart data...
Computing Atmospheric mass density...

Documentation

Showing up to 5 results
|